Time,TemperatureF,DewpointF,PressureIn,WindDirection,WindDirectionDegrees,WindSpeedMPH,WindSpeedGustMPH,Humidity,HourlyPrecipIn,Conditions,Clouds,dailyrainin,SoftwareType,DateUTC
2014-10-20 00:03:00,62.0,56.5,30.16,NNW,338,0.0,0.0,82,0.00,,,0.00,VWS V15.00,2014-10-19 22:03:00,
2014-10-20 00:08:00,61.8,55.9,30.16,SSW,202,0.0,0.0,81,0.00,,,0.00,VWS V15.00,2014-10-19 22:08:00,
2014-10-20 00:13:00,61.8,56.2,30.16,NNE,22,0.0,0.0,82,0.00,,,0.00,VWS V15.00,2014-10-19 22:13:00,
2014-10-20 00:18:00,61.8,56.2,30.16,NNE,22,0.0,0.0,82,0.00,,,0.00,VWS V15.00,2014-10-19 22:18:00,
2014-10-20 00:23:00,61.8,56.2,30.16,NNE,22,0.0,0.0,82,0.00,,,0.00,VWS V15.00,2014-10-19 22:23:00,
2014-10-20 00:28:00,61.8,56.2,30.16,NNE,22,0.0,0.0,82,0.00,,,0.00,VWS V15.00,2014-10-19 22:28:00,
2014-10-20 00:33:00,61.7,56.5,30.16,SE,135,0.0,0.0,83,0.00,,,0.00,VWS V15.00,2014-10-19 22:33:00,
2014-10-20 00:38:00,61.5,56.3,30.16,South,180,0.0,0.0,83,0.00,,,0.00,VWS V15.00,2014-10-19 22:38:00,
2014-10-20 00:43:00,61.3,56.1,30.16,SSE,158,0.8,0.8,83,0.00,,,0.00,VWS V15.00,2014-10-19 22:43:00,
2014-10-20 00:48:00,61.1,56.2,30.16,South,180,0.0,0.0,84,0.00,,,0.00,VWS V15.00,2014-10-19 22:48:00,
2014-10-20 00:53:00,61.1,56.2,30.16,South,180,0.0,0.0,84,0.00,,,0.00,VWS V15.00,2014-10-19 22:53:00,
2014-10-20 00:58:00,61.1,56.2,30.16,South,180,0.0,0.0,84,0.00,,,0.00,VWS V15.00,2014-10-19 22:58:00,
2014-10-20 01:03:00,61.1,56.2,30.15,NNE,22,0.0,0.0,84,0.00,,,0.00,VWS V15.00,2014-10-19 23:03:00,
2014-10-20 01:08:00,61.1,56.2,30.15,North,0,0.0,0.0,84,0.00,,,0.00,VWS V15.00,2014-10-19 23:08:00,
2014-10-20 01:13:00,61.1,56.2,30.15,ESE,112,0.0,0.0,84,0.00,,,0.00,VWS V15.00,2014-10-19 23:13:00,
2014-10-20 01:18:00,61.1,56.2,30.15,ESE,112,0.0,0.0,84,0.00,,,0.00,VWS V15.00,2014-10-19 23:18:00,
2014-10-20 01:23:00,61.1,56.2,30.15,SSE,158,0.0,0.0,84,0.00,,,0.00,VWS V15.00,2014-10-19 23:23:00,
2014-10-20 01:28:00,61.1,56.2,30.15,SE,135,0.0,0.0,84,0.00,,,0.00,VWS V15.00,2014-10-19 23:28:00,
2014-10-20 01:33:00,60.9,56.4,30.15,SE,135,0.0,0.0,85,0.00,,,0.00,VWS V15.00,2014-10-19 23:33:00,
2014-10-20 01:38:00,60.9,56.4,30.15,SSE,158,0.0,0.0,85,0.00,,,0.00,VWS V15.00,2014-10-19 23:38:00,
2014-10-20 01:43:00,60.9,56.0,30.15,SSE,158,0.0,0.0,84,0.00,,,0.00,VWS V15.00,2014-10-19 23:43:00,
2014-10-20 01:48:00,60.9,56.4,30.15,SSE,158,0.0,0.0,85,0.00,,,0.00,VWS V15.00,2014-10-19 23:48:00,
2014-10-20 01:53:00,60.9,56.0,30.15,South,180,0.0,0.0,84,0.00,,,0.00,VWS V15.00,2014-10-19 23:53:00,
2014-10-20 01:58:00,60.9,56.0,30.15,South,180,0.0,0.0,84,0.00,,,0.00,VWS V15.00,2014-10-19 23:58:00,
2014-10-20 02:03:00,60.9,56.0,30.15,South,180,0.0,0.0,84,0.00,,,0.00,VWS V15.00,2014-10-20 00:03:00,
2014-10-20 02:08:00,60.9,56.0,30.15,South,180,0.0,0.0,84,0.00,,,0.00,VWS V15.00,2014-10-20 00:08:00,
2014-10-20 02:13:00,60.9,56.0,30.15,South,180,0.0,0.0,84,0.00,,,0.00,VWS V15.00,2014-10-20 00:13:00,
2014-10-20 02:18:00,60.9,56.0,30.15,South,180,0.0,0.0,84,0.00,,,0.00,VWS V15.00,2014-10-20 00:18:00,
2014-10-20 02:23:00,60.9,56.0,30.15,South,180,0.0,0.0,84,0.00,,,0.00,VWS V15.00,2014-10-20 00:23:00,
2014-10-20 02:28:00,60.9,56.0,30.15,South,180,0.0,0.0,84,0.00,,,0.00,VWS V15.00,2014-10-20 00:28:00,
2014-10-20 02:33:00,60.9,56.0,30.14,South,180,0.0,0.0,84,0.00,,,0.00,VWS V15.00,2014-10-20 00:33:00,
2014-10-20 02:38:00,60.8,55.9,30.14,South,180,0.0,0.0,84,0.00,,,0.00,VWS V15.00,2014-10-20 00:38:00,
2014-10-20 02:43:00,60.8,55.9,30.14,South,180,0.0,0.0,84,0.00,,,0.00,VWS V15.00,2014-10-20 00:43:00,
2014-10-20 02:48:00,60.6,55.8,30.14,South,180,0.0,0.0,84,0.00,,,0.00,VWS V15.00,2014-10-20 00:48:00,
2014-10-20 02:53:00,60.6,55.8,30.14,South,180,0.0,0.0,84,0.00,,,0.00,VWS V15.00,2014-10-20 00:53:00,
2014-10-20 02:58:00,60.6,55.8,30.14,South,180,0.0,0.0,84,0.00,,,0.00,VWS V15.00,2014-10-20 00:58:00,
2014-10-20 03:03:00,60.6,55.8,30.13,South,180,0.0,0.0,84,0.00,,,0.00,VWS V15.00,2014-10-20 01:03:00,
2014-10-20 03:08:00,60.6,55.8,30.13,South,180,0.0,0.0,84,0.00,,,0.00,VWS V15.00,2014-10-20 01:08:00,
2014-10-20 03:13:00,60.6,56.1,30.13,South,180,0.0,0.0,85,0.00,,,0.00,VWS V15.00,2014-10-20 01:13:00,
2014-10-20 03:18:00,60.6,56.1,30.13,South,180,0.0,0.0,85,0.00,,,0.00,VWS V15.00,2014-10-20 01:18:00,
2014-10-20 03:23:00,60.6,56.1,30.13,South,180,0.0,0.0,85,0.00,,,0.00,VWS V15.00,2014-10-20 01:23:00,
2014-10-20 03:28:00,60.6,56.1,30.13,South,180,0.0,0.0,85,0.00,,,0.00,VWS V15.00,2014-10-20 01:28:00,
2014-10-20 03:33:00,60.6,56.1,30.13,South,180,0.0,0.0,85,0.00,,,0.00,VWS V15.00,2014-10-20 01:33:00,
2014-10-20 03:38:00,60.4,55.9,30.13,South,180,0.0,0.0,85,0.00,,,0.00,VWS V15.00,2014-10-20 01:38:00,
2014-10-20 03:43:00,60.4,55.9,30.13,South,180,0.0,0.0,85,0.00,,,0.00,VWS V15.00,2014-10-20 01:43:00,
2014-10-20 03:48:00,60.4,55.9,30.13,South,180,0.0,0.0,85,0.00,,,0.00,VWS V15.00,2014-10-20 01:48:00,
2014-10-20 03:53:00,60.2,55.7,30.13,NNW,338,0.0,0.0,85,0.00,,,0.00,VWS V15.00,2014-10-20 01:53:00,
2014-10-20 03:58:00,60.2,55.7,30.13,NNW,338,0.0,0.0,85,0.00,,,0.00,VWS V15.00,2014-10-20 01:58:00,
2014-10-20 04:03:00,60.0,55.5,30.12,NNW,338,0.0,0.0,85,0.00,,,0.00,VWS V15.00,2014-10-20 02:03:00,
2014-10-20 04:08:00,60.0,55.5,30.12,NNW,338,0.0,0.0,85,0.00,,,0.00,VWS V15.00,2014-10-20 02:08:00,
2014-10-20 04:13:00,60.2,56.0,30.12,NNW,338,0.0,0.0,86,0.00,,,0.00,VWS V15.00,2014-10-20 02:13:00,
2014-10-20 04:18:00,60.2,56.0,30.12,NNW,338,0.0,0.0,86,0.00,,,0.00,VWS V15.00,2014-10-20 02:18:00,
2014-10-20 04:23:00,60.4,56.2,30.12,NNW,338,0.0,0.0,86,0.00,,,0.00,VWS V15.00,2014-10-20 02:23:00,
2014-10-20 04:28:00,60.2,56.0,30.12,NNW,338,0.0,0.0,86,0.00,,,0.00,VWS V15.00,2014-10-20 02:28:00,
2014-10-20 04:33:00,60.2,56.0,30.12,NNW,338,0.0,0.0,86,0.00,,,0.00,VWS V15.00,2014-10-20 02:33:00,
2014-10-20 04:38:00,60.0,55.8,30.12,NNW,338,0.0,0.0,86,0.00,,,0.00,VWS V15.00,2014-10-20 02:38:00,
2014-10-20 04:43:00,60.0,55.8,30.12,NNW,338,0.0,0.0,86,0.00,,,0.00,VWS V15.00,2014-10-20 02:43:00,
2014-10-20 04:48:00,60.0,55.8,30.12,NNW,338,0.0,0.0,86,0.00,,,0.00,VWS V15.00,2014-10-20 02:48:00,
2014-10-20 04:53:00,60.2,56.0,30.12,WNW,292,0.0,0.0,86,0.00,,,0.00,VWS V15.00,2014-10-20 02:53:00,
2014-10-20 04:58:00,60.2,56.0,30.12,WNW,292,0.0,0.0,86,0.00,,,0.00,VWS V15.00,2014-10-20 02:58:00,
2014-10-20 05:03:00,60.4,56.2,30.12,West,270,0.0,0.0,86,0.00,,,0.00,VWS V15.00,2014-10-20 03:03:00,
2014-10-20 05:08:00,60.4,56.2,30.12,SW,225,0.0,0.0,86,0.00,,,0.00,VWS V15.00,2014-10-20 03:08:00,
2014-10-20 05:13:00,60.4,56.2,30.12,SW,225,0.0,0.0,86,0.00,,,0.00,VWS V15.00,2014-10-20 03:13:00,
2014-10-20 05:18:00,60.0,55.8,30.12,SW,225,0.0,0.0,86,0.00,,,0.00,VWS V15.00,2014-10-20 03:18:00,
2014-10-20 05:23:00,60.0,55.8,30.12,SW,225,0.0,0.0,86,0.00,,,0.00,VWS V15.00,2014-10-20 03:23:00,
2014-10-20 05:28:00,60.0,55.8,30.12,SW,225,0.0,0.0,86,0.00,,,0.00,VWS V15.00,2014-10-20 03:28:00,
2014-10-20 05:33:00,60.0,55.8,30.12,WSW,248,0.0,0.0,86,0.00,,,0.00,VWS V15.00,2014-10-20 03:33:00,
2014-10-20 05:37:00,60.0,55.8,30.12,West,270,0.0,0.0,86,0.00,,,0.00,VWS V15.00,2014-10-20 03:37:00,
2014-10-20 05:42:00,59.9,55.7,30.11,West,270,0.0,0.0,86,0.00,,,0.00,VWS V15.00,2014-10-20 03:42:00,
2014-10-20 05:48:00,59.7,55.5,30.12,West,270,0.0,0.0,86,0.00,,,0.00,VWS V15.00,2014-10-20 03:48:00,
2014-10-20 05:53:00,59.7,55.5,30.11,SSW,202,0.0,0.0,86,0.00,,,0.00,VWS V15.00,2014-10-20 03:53:00,
2014-10-20 05:57:00,59.7,55.8,30.12,SW,225,0.0,0.0,87,0.00,,,0.00,VWS V15.00,2014-10-20 03:57:00,
2014-10-20 06:03:00,59.7,55.8,30.11,SSW,202,0.0,0.0,87,0.00,,,0.00,VWS V15.00,2014-10-20 04:03:00,
2014-10-20 06:08:00,59.5,55.6,30.11,SW,225,0.0,0.0,87,0.00,,,0.00,VWS V15.00,2014-10-20 04:08:00,
2014-10-20 06:13:00,59.3,55.4,30.11,SW,225,0.0,0.0,87,0.00,,,0.00,VWS V15.00,2014-10-20 04:13:00,
2014-10-20 06:18:00,59.1,55.2,30.11,SSW,202,0.0,2.0,87,0.00,,,0.00,VWS V15.00,2014-10-20 04:18:00,
2014-10-20 06:22:00,59.1,55.2,30.11,SSE,158,0.8,1.3,87,0.00,,,0.00,VWS V15.00,2014-10-20 04:22:00,
2014-10-20 06:27:00,59.0,55.1,30.11,West,270,0.0,0.0,87,0.00,,,0.00,VWS V15.00,2014-10-20 04:27:00,
2014-10-20 06:32:00,58.6,54.8,30.11,SSW,202,0.0,0.0,87,0.00,,,0.00,VWS V15.00,2014-10-20 04:32:00,
2014-10-20 06:37:00,58.2,54.4,30.11,SW,225,0.0,0.0,87,0.00,,,0.00,VWS V15.00,2014-10-20 04:37:00,
2014-10-20 06:42:00,57.9,54.1,30.11,WSW,248,0.0,0.0,87,0.00,,,0.00,VWS V15.00,2014-10-20 04:42:00,
2014-10-20 06:47:00,57.7,53.5,30.11,WSW,248,0.0,0.0,86,0.00,,,0.00,VWS V15.00,2014-10-20 04:47:00,
2014-10-20 06:52:00,57.5,53.3,30.11,WSW,248,0.0,0.0,86,0.00,,,0.00,VWS V15.00,2014-10-20 04:52:00,
2014-10-20 06:57:00,57.3,53.2,30.11,WSW,248,2.4,2.4,86,0.00,,,0.00,VWS V15.00,2014-10-20 04:57:00,
2014-10-20 07:02:00,57.3,52.8,30.11,SSW,202,0.0,0.0,85,0.00,,,0.00,VWS V15.00,2014-10-20 05:02:00,
2014-10-20 07:07:00,57.0,52.5,30.11,SSE,158,0.0,1.5,85,0.00,,,0.00,VWS V15.00,2014-10-20 05:07:00,
2014-10-20 07:12:00,57.3,53.2,30.11,SSW,202,0.0,0.0,86,0.00,,,0.00,VWS V15.00,2014-10-20 05:12:00,
2014-10-20 07:17:00,57.3,53.2,30.11,SSW,202,0.0,0.0,86,0.00,,,0.00,VWS V15.00,2014-10-20 05:17:00,
2014-10-20 07:22:00,57.7,53.5,30.11,SSW,202,0.0,0.0,86,0.00,,,0.00,VWS V15.00,2014-10-20 05:22:00,
2014-10-20 07:27:00,57.9,53.7,30.11,WSW,248,0.0,0.8,86,0.00,,,0.00,VWS V15.00,2014-10-20 05:27:00,
2014-10-20 07:32:00,58.1,53.6,30.11,WNW,292,0.0,0.0,85,0.00,,,0.00,VWS V15.00,2014-10-20 05:32:00,
2014-10-20 07:37:00,58.1,53.6,30.11,West,270,0.0,0.0,85,0.00,,,0.00,VWS V15.00,2014-10-20 05:37:00,
2014-10-20 07:42:00,58.1,53.6,30.11,NNW,338,0.0,0.0,85,0.00,,,0.00,VWS V15.00,2014-10-20 05:42:00,
2014-10-20 07:47:00,57.9,53.4,30.11,North,0,0.0,0.0,85,0.00,,,0.00,VWS V15.00,2014-10-20 05:47:00,
2014-10-20 07:52:00,58.2,53.4,30.11,NNE,22,0.0,0.6,84,0.00,,,0.00,VWS V15.00,2014-10-20 05:52:00,
2014-10-20 07:57:00,58.6,53.5,30.11,NNW,338,0.0,0.0,83,0.00,,,0.00,VWS V15.00,2014-10-20 05:57:00,
2014-10-20 08:02:00,58.8,53.7,30.11,North,0,0.0,0.0,83,0.00,,,0.00,VWS V15.00,2014-10-20 06:02:00,
2014-10-20 08:07:00,59.0,53.5,30.11,North,0,0.0,0.0,82,0.00,,,0.00,VWS V15.00,2014-10-20 06:07:00,
2014-10-20 08:12:00,59.3,53.5,30.11,NNW,338,0.0,0.0,81,0.00,,,0.00,VWS V15.00,2014-10-20 06:12:00,
2014-10-20 08:17:00,59.5,53.7,30.11,North,0,0.0,0.0,81,0.00,,,0.00,VWS V15.00,2014-10-20 06:17:00,
2014-10-20 08:22:00,59.7,53.5,30.11,North,0,0.0,0.0,80,0.00,,,0.00,VWS V15.00,2014-10-20 06:22:00,
2014-10-20 08:27:00,60.0,53.8,30.11,NNW,338,0.0,0.0,80,0.00,,,0.00,VWS V15.00,2014-10-20 06:27:00,
2014-10-20 08:32:00,60.6,54.4,30.12,NNW,338,0.0,0.0,80,0.00,,,0.00,VWS V15.00,2014-10-20 06:32:00,
2014-10-20 08:37:00,61.1,54.9,30.12,NNE,22,0.0,0.0,80,0.00,,,0.00,VWS V15.00,2014-10-20 06:37:00,
2014-10-20 08:42:00,61.7,55.1,30.12,NNE,22,0.0,0.0,79,0.00,,,0.00,VWS V15.00,2014-10-20 06:42:00,
2014-10-20 08:47:00,62.2,55.3,30.12,North,0,1.3,1.3,78,0.00,,,0.00,VWS V15.00,2014-10-20 06:47:00,
2014-10-20 08:52:00,62.9,55.6,30.12,NNW,338,0.0,0.0,77,0.00,,,0.00,VWS V15.00,2014-10-20 06:52:00,
2014-10-20 08:57:00,64.0,56.3,30.12,North,0,0.8,0.8,76,0.00,,,0.00,VWS V15.00,2014-10-20 06:57:00,
2014-10-20 09:02:00,65.1,56.6,30.12,NNE,22,0.0,0.0,74,0.00,,,0.00,VWS V15.00,2014-10-20 07:02:00,
2014-10-20 09:07:00,66.0,56.7,30.12,NE,45,0.0,0.0,72,0.00,,,0.00,VWS V15.00,2014-10-20 07:07:00,
2014-10-20 09:12:00,66.5,56.8,30.12,SSE,158,0.0,0.0,71,0.00,,,0.00,VWS V15.00,2014-10-20 07:12:00,
2014-10-20 09:17:00,66.7,56.6,30.12,SE,135,0.0,0.0,70,0.00,,,0.00,VWS V15.00,2014-10-20 07:17:00,
2014-10-20 09:22:00,66.7,56.6,30.12,South,180,0.0,0.0,70,0.00,,,0.00,VWS V15.00,2014-10-20 07:22:00,
2014-10-20 09:27:00,66.9,56.4,30.12,SSW,202,0.0,0.0,69,0.00,,,0.00,VWS V15.00,2014-10-20 07:27:00,
2014-10-20 09:32:00,66.9,56.0,30.12,South,180,1.3,1.3,68,0.00,,,0.00,VWS V15.00,2014-10-20 07:32:00,
2014-10-20 09:37:00,66.9,56.0,30.12,SSE,158,0.0,2.0,68,0.00,,,0.00,VWS V15.00,2014-10-20 07:37:00,
2014-10-20 09:42:00,67.1,56.2,30.12,SSE,158,0.0,1.5,68,0.00,,,0.00,VWS V15.00,2014-10-20 07:42:00,
2014-10-20 09:47:00,67.1,56.2,30.12,South,180,0.0,1.7,68,0.00,,,0.00,VWS V15.00,2014-10-20 07:47:00,
2014-10-20 09:52:00,67.6,56.7,30.12,SSE,158,0.8,0.8,68,0.00,,,0.00,VWS V15.00,2014-10-20 07:52:00,
2014-10-20 09:57:00,67.8,56.5,30.12,NNW,338,0.0,1.3,67,0.00,,,0.00,VWS V15.00,2014-10-20 07:57:00,
2014-10-20 10:02:00,68.1,56.7,30.13,SE,135,0.0,2.9,67,0.00,,,0.00,VWS V15.00,2014-10-20 08:02:00,
2014-10-20 10:07:00,68.3,56.9,30.13,SSW,202,1.7,1.7,67,0.00,,,0.00,VWS V15.00,2014-10-20 08:07:00,
2014-10-20 10:12:00,68.5,56.7,30.13,South,180,0.0,1.3,66,0.00,,,0.00,VWS V15.00,2014-10-20 08:12:00,
2014-10-20 10:17:00,68.1,56.3,30.13,SE,135,0.0,2.0,66,0.00,,,0.00,VWS V15.00,2014-10-20 08:17:00,
2014-10-20 10:22:00,68.3,56.5,30.13,SSE,158,3.3,3.3,66,0.00,,,0.00,VWS V15.00,2014-10-20 08:22:00,
2014-10-20 10:27:00,68.5,56.7,30.13,SSE,158,0.8,1.5,66,0.00,,,0.00,VWS V15.00,2014-10-20 08:27:00,
2014-10-20 10:32:00,68.5,56.7,30.13,SSE,158,0.0,1.1,66,0.00,,,0.00,VWS V15.00,2014-10-20 08:32:00,
2014-10-20 10:37:00,67.8,56.5,30.13,SSW,202,0.0,3.3,67,0.00,,,0.00,VWS V15.00,2014-10-20 08:37:00,
2014-10-20 10:42:00,68.3,56.5,30.13,SSW,202,2.4,2.4,66,0.00,,,0.00,VWS V15.00,2014-10-20 08:42:00,
2014-10-20 10:47:00,69.0,56.8,30.13,ENE,68,0.0,1.3,65,0.00,,,0.00,VWS V15.00,2014-10-20 08:47:00,
2014-10-20 10:52:00,69.4,57.1,30.13,South,180,2.2,3.1,65,0.00,,,0.00,VWS V15.00,2014-10-20 08:52:00,
2014-10-20 10:57:00,69.4,57.1,30.13,SE,135,0.0,1.5,65,0.00,,,0.00,VWS V15.00,2014-10-20 08:57:00,
2014-10-20 11:02:00,69.0,56.8,30.13,SSE,158,0.0,2.6,65,0.00,,,0.00,VWS V15.00,2014-10-20 09:02:00,
2014-10-20 11:07:00,69.0,56.8,30.13,SSE,158,1.5,2.2,65,0.00,,,0.00,VWS V15.00,2014-10-20 09:07:00,
2014-10-20 11:12:00,69.6,57.3,30.13,SSW,202,2.0,2.0,65,0.00,,,0.00,VWS V15.00,2014-10-20 09:12:00,
2014-10-20 11:17:00,70.1,57.4,30.12,SE,135,2.9,3.5,64,0.00,,,0.00,VWS V15.00,2014-10-20 09:17:00,
2014-10-20 11:22:00,70.1,56.9,30.12,SSE,158,3.8,3.8,63,0.00,,,0.00,VWS V15.00,2014-10-20 09:22:00,
2014-10-20 11:27:00,69.9,56.8,30.12,SSE,158,2.4,2.9,63,0.00,,,0.00,VWS V15.00,2014-10-20 09:27:00,
2014-10-20 11:32:00,70.1,56.9,30.12,NNE,22,1.5,1.5,63,0.00,,,0.00,VWS V15.00,2014-10-20 09:32:00,
2014-10-20 11:37:00,70.3,57.1,30.12,SE,135,1.5,1.5,63,0.00,,,0.00,VWS V15.00,2014-10-20 09:37:00,
2014-10-20 11:42:00,70.1,56.5,30.12,South,180,0.0,2.9,62,0.00,,,0.00,VWS V15.00,2014-10-20 09:42:00,
2014-10-20 11:47:00,69.9,56.3,30.12,SSE,158,0.0,0.0,62,0.00,,,0.00,VWS V15.00,2014-10-20 09:47:00,
2014-10-20 11:52:00,69.6,56.0,30.12,South,180,4.2,4.2,62,0.00,,,0.00,VWS V15.00,2014-10-20 09:52:00,
2014-10-20 11:57:00,69.4,56.7,30.12,SSE,158,0.0,0.0,64,0.00,,,0.00,VWS V15.00,2014-10-20 09:57:00,
2014-10-20 12:02:00,69.8,57.5,30.12,South,180,2.2,2.2,65,0.00,,,0.00,VWS V15.00,2014-10-20 10:02:00,
2014-10-20 12:07:00,70.8,58.0,30.12,SSE,158,4.6,4.6,64,0.00,,,0.00,VWS V15.00,2014-10-20 10:07:00,
2014-10-20 12:12:00,71.7,56.6,30.11,SE,135,4.4,4.9,59,0.00,,,0.00,VWS V15.00,2014-10-20 10:12:00,
2014-10-20 12:17:00,71.4,57.3,30.11,South,180,3.1,4.4,61,0.00,,,0.00,VWS V15.00,2014-10-20 10:17:00,
2014-10-20 12:22:00,71.7,56.6,30.11,SE,135,0.8,2.0,59,0.00,,,0.00,VWS V15.00,2014-10-20 10:22:00,
2014-10-20 12:27:00,71.9,56.3,30.11,SSE,158,5.8,8.0,58,0.00,,,0.00,VWS V15.00,2014-10-20 10:27:00,
2014-10-20 12:32:00,72.1,57.0,30.11,SE,135,3.1,3.1,59,0.00,,,0.00,VWS V15.00,2014-10-20 10:32:00,
2014-10-20 12:37:00,72.1,56.0,30.10,SSW,202,7.3,7.3,57,0.00,,,0.00,VWS V15.00,2014-10-20 10:37:00,
2014-10-20 12:42:00,71.9,56.3,30.10,WSW,248,2.4,6.7,58,0.00,,,0.00,VWS V15.00,2014-10-20 10:42:00,
2014-10-20 12:47:00,71.7,56.6,30.10,SSW,202,1.3,4.0,59,0.00,,,0.00,VWS V15.00,2014-10-20 10:47:00,
2014-10-20 12:52:00,71.7,56.6,30.10,SSW,202,1.3,5.3,59,0.00,,,0.00,VWS V15.00,2014-10-20 10:52:00,
2014-10-20 12:57:00,72.3,57.2,30.10,South,180,3.3,3.3,59,0.00,,,0.00,VWS V15.00,2014-10-20 10:57:00,
2014-10-20 13:02:00,72.3,56.2,30.09,SSE,158,3.8,4.0,57,0.00,,,0.00,VWS V15.00,2014-10-20 11:02:00,
2014-10-20 13:07:00,72.3,56.2,30.09,SSW,202,2.0,4.2,57,0.00,,,0.00,VWS V15.00,2014-10-20 11:07:00,
2014-10-20 13:12:00,72.6,56.0,30.09,SSE,158,3.5,5.5,56,0.00,,,0.00,VWS V15.00,2014-10-20 11:12:00,
2014-10-20 13:17:00,73.0,56.4,30.09,SSE,158,4.9,4.9,56,0.00,,,0.00,VWS V15.00,2014-10-20 11:17:00,
2014-10-20 13:22:00,72.5,55.9,30.09,SE,135,4.0,4.0,56,0.00,,,0.00,VWS V15.00,2014-10-20 11:22:00,
2014-10-20 13:27:00,72.8,56.2,30.09,SSE,158,3.8,7.8,56,0.00,,,0.00,VWS V15.00,2014-10-20 11:27:00,
2014-10-20 13:32:00,73.2,56.1,30.09,South,180,3.1,3.1,55,0.00,,,0.00,VWS V15.00,2014-10-20 11:32:00,
2014-10-20 13:37:00,72.8,56.2,30.09,WSW,248,1.1,3.5,56,0.00,,,0.00,VWS V15.00,2014-10-20 11:37:00,
2014-10-20 13:42:00,73.4,56.8,30.09,SSW,202,1.7,2.4,56,0.00,,,0.00,VWS V15.00,2014-10-20 11:42:00,
2014-10-20 13:47:00,73.5,56.4,30.08,SSW,202,1.1,5.8,55,0.00,,,0.00,VWS V15.00,2014-10-20 11:47:00,
2014-10-20 13:52:00,73.5,56.9,30.08,SSW,202,1.1,3.8,56,0.00,,,0.00,VWS V15.00,2014-10-20 11:52:00,
2014-10-20 13:57:00,73.7,57.0,30.08,West,270,0.6,0.8,56,0.00,,,0.00,VWS V15.00,2014-10-20 11:57:00,
2014-10-20 14:02:00,73.7,57.0,30.08,SSE,158,0.0,3.3,56,0.00,,,0.00,VWS V15.00,2014-10-20 12:02:00,
2014-10-20 14:07:00,73.5,57.8,30.07,NNW,338,2.4,2.4,58,0.00,,,0.00,VWS V15.00,2014-10-20 12:07:00,